          17 18  07 02.49  +56 21.5   2.564  1.847    40.4 /  96  10.7   33  .00

          18 18  07 07.32  +56 17.1   2.572  1.855    40.1 /  97  10.7   39  .02

          19 18  07 12.10  +56 12.1   2.579  1.863    39.8 /  97  10.7   48  .05

          20 18  07 16.83  +56 06.7   2.587  1.871    39.5 /  98  10.7   57  .10

          21 18  07 21.49  +56 00.8   2.594  1.879    39.2 /  99  10.8   67  .17

          22 18  07 26.10  +55 54.4   2.602  1.887    38.9 / 100  10.8   77  .25

          23 18  07 30.64  +55 47.7   2.609  1.896    38.6 / 100  10.8   88  .35

          24 18  07 35.13  +55 40.6   2.617  1.904    38.3 / 101  10.8   99  .46

          25 18  07 39.56  +55 33.1   2.624  1.912    37.9 / 102  10.8  110  .57

          26 18  07 43.93  +55 25.2   2.632  1.921    37.6 / 102  10.9  121  .68

          27 18  07 48.23  +55 17.0   2.639  1.929    37.3 / 103  10.9  132  .78

          28 18  07 52.48  +55 08.4   2.647  1.938    37.0 / 103  10.9  142  .87

          29 18  07 56.66  +54 59.5   2.655  1.946    36.7 / 104  10.9  149  .94

          30 18  08 00.78  +54 50.4   2.662  1.955    36.4 / 105  11.0  151  .98

          31 18  08 04.84  +54 41.0   2.670  1.963    36.1 / 105  11.0  147 1.00

     Aug.  1 18  08 08.84  +54 31.3   2.678  1.972    35.8 / 106  11.0  139  .98

NAKANO

         **** Don't distribute anyone except personal use only ****

                (C) Copyright 2004 OAA/ComputingSection

write mail from CFAD0::NAKANO on 2004-06-20 02:34:58(JST).

 

    C/2003 T3 (Tabur)                                                     

Epoch 2004 Apr. 25.0 TT = JDT 2453120.5  

T 2004 Apr. 28.99586 TT                                 Nakano

q   1.4811523            (2000.0)            P               Q

z  +0.0000574      Peri.   43.76770     +0.80246479     -0.57117085

 +/-0.0000153      Node   347.05863     +0.03337982     +0.33188806

e   0.9999150      Incl.   50.44344     +0.59576510     +0.75074241

From 179 observations 2003 Oct. 14-2004 Apr. 20, mean residual 0".57.

   (1/a)org.= -0.000069, (1/a)fut.= +0.000634 (+/-0.000015), Q= 6.

NAKANO

         **** Don't distribute anyone except personal use only ****

                (C) Copyright 2004 OAA/ComputingSection

write mail from CFAD0::NAKANO on 2004-04-24 06:00:27(JST).

 



◎C/2003 T3の軌道と予報位置です



 上尾の門田健一氏は,明け方の低空にあるこの彗星の観測に21日朝に

成功しました.氏の CCD全光度は10.2等でした.前回のEMESの軌道(2003年

10月14日〜12月28日)からの観測位置は,23"でした.



    C/2003 T3 (Tabur)                                                     

Epoch 2004 Apr. 25.0 TT = JDT 2453120.5  

T 2004 Apr. 28.99586 TT                                 Nakano

q   1.4811523            (2000.0)            P               Q

z  +0.0000574      Peri.   43.76770     +0.80246479     -0.57117085

 +/-0.0000153      Node   347.05863     +0.03337982     +0.33188806

e   0.9999150      Incl.   50.44344     +0.59576510     +0.75074241

From 179 observations 2003 Oct. 14-2004 Apr. 20, mean residual 0".57.

   (1/a)org.= -0.000069, (1/a)fut.= +0.000634 (+/-0.000015), Q= 6.



   C/Tabur                2003 T3   9.0  5N   6.5  8G                           

                                                    

 28h JST R.A.(2000) Decl.    Delta   r      Mot./PA   Elong. Mag.   At Twilight

           h  m       。  ,                    ,     。    。    m1     h。    A 。 

Apr. 20  00 49.47  +23 42.5  2.393  1.486   50.2/ 43   19.7   9.8   +1.9  241.9

     21  00 51.98  +24 19.1  2.389  1.485   50.4/ 43   20.0   9.8   +2.3  241.4

     22  00 54.52  +24 55.7  2.384  1.484   50.5/ 43   20.4   9.8   +2.6  240.9

     23  00 57.08  +25 32.3  2.380  1.483   50.7/ 44   20.7   9.8   +3.0  240.4

     24  00 59.68  +26 08.9  2.376  1.482   50.8/ 44   21.1   9.7   +3.3  239.9

     25  01 02.30  +26 45.6  2.372  1.482   51.0/ 44   21.4   9.7   +3.7  239.4

     26  01 04.95  +27 22.2  2.368  1.481   51.1/ 44   21.8   9.7   +4.0  238.9

     27  01 07.64  +27 58.9  2.365  1.481   51.3/ 44   22.1   9.7   +4.3  238.4

     28  01 10.35  +28 35.5  2.361  1.481   51.4/ 44   22.4   9.7   +4.7  237.9

     29  01 13.10  +29 12.1  2.358  1.481   51.5/ 45   22.8   9.7   +5.0  237.4

     30  01 15.89  +29 48.6  2.354  1.481   51.6/ 45   23.1   9.7   +5.3  236.9

May   1  01 18.71  +30 25.1  2.351  1.482   51.8/ 45   23.4   9.7   +5.7  236.3

      2  01 21.56  +31 01.5  2.348  1.482   51.9/ 45   23.8   9.7   +6.0  235.8

      3  01 24.45  +31 37.8  2.345  1.483   52.0/ 46   24.1   9.7   +6.3  235.3

      4  01 27.38  +32 14.1  2.342  1.483   52.1/ 46   24.4   9.7   +6.6  234.8

      5  01 30.34  +32 50.2  2.340  1.484   52.2/ 46   24.7   9.7   +6.9  234.2

      6  01 33.35  +33 26.2  2.337  1.485   52.3/ 46   25.0   9.7   +7.2  233.7

      7  01 36.39  +34 02.1  2.335  1.486   52.3/ 47   25.3   9.7   +7.5  233.2

      8  01 39.48  +34 37.9  2.333  1.488   52.4/ 47   25.6   9.7   +7.8  232.6

      9  01 42.61  +35 13.5  2.331  1.489   52.5/ 47   25.9   9.7   +8.1  232.1

     10  01 45.78  +35 49.0  2.329  1.490   52.6/ 48   26.2   9.7   +8.4  231.6

     11  01 48.99  +36 24.2  2.327  1.492   52.6/ 48   26.5   9.7   +8.7  231.0

     12  01 52.26  +36 59.3  2.326  1.494   52.7/ 48   26.7   9.7   +8.9  230.5

     13  01 55.56  +37 34.1  2.324  1.496   52.7/ 49   27.0   9.7   +9.2  230.0

     14  01 58.92  +38 08.8  2.323  1.498   52.7/ 49   27.3   9.7   +9.5  229.4

     15  02 02.32  +38 43.2  2.322  1.500   52.7/ 49   27.5   9.7   +9.7  228.9

     16  02 05.77  +39 17.3  2.321  1.502   52.8/ 50   27.8   9.7  +10.0  228.4

     17  02 09.27  +39 51.2  2.320  1.505   52.8/ 50   28.1   9.7  +10.2  227.8

     18  02 12.82  +40 24.7  2.319  1.507   52.8/ 51   28.3   9.8  +10.5  227.3

     19  02 16.42  +40 58.0  2.319  1.510   52.8/ 51   28.6   9.8  +10.7  226.8

     20  02 20.07  +41 30.9  2.319  1.513   52.7/ 52   28.8   9.8  +10.9  226.3

     21  02 23.78  +42 03.5  2.319  1.516   52.7/ 52   29.0   9.8  +11.2  225.7

     22  02 27.54  +42 35.8  2.319  1.519   52.7/ 52   29.3   9.8  +11.4  225.2

     23  02 31.35  +43 07.6  2.319  1.522   52.6/ 53   29.5   9.8  +11.6  224.7

     24  02 35.22  +43 39.1  2.319  1.525   52.6/ 53   29.7   9.8  +11.8  224.2

     25  02 39.14  +44 10.2  2.320  1.529   52.5/ 54   30.0   9.8  +12.0  223.7

     26  02 43.12  +44 40.8  2.321  1.532   52.4/ 54   30.2   9.8  +12.2  223.2

     27  02 47.16  +45 11.0  2.322  1.536   52.4/ 55   30.4   9.8  +12.4  222.7

     28  02 51.25  +45 40.7  2.323  1.539   52.3/ 56   30.6   9.8  +12.6  222.2

     29  02 55.40  +46 10.0  2.324  1.543   52.2/ 56   30.8   9.8  +12.7  221.7

     30  02 59.61  +46 38.7  2.326  1.547   52.1/ 57   31.0   9.8  +12.9  221.2

     31  03 03.88  +47 07.0  2.327  1.551   52.0/ 57   31.2   9.9  +13.1  220.7

June  1  03 08.20  +47 34.7  2.329  1.556   51.8/ 58   31.4   9.9  +13.2  220.2

NAKANO

         **** Don't distribute anyone except personal use only ****

                (C) Copyright 2004 OAA/ComputingSection

write mail from CFAD0::NAKANO on 2004-04-23 05:16:10(JST).

 

   C/2003 T3 (Tabur)                                                     

T 2004 Apr. 28.98778 TT                                 Nakano

q   1.4809543            (2000.0)            P               Q

                   Peri.   43.77345     +0.80240069     -0.57127117

                   Node   347.06088     +0.03346256     +0.33188549

e   1.0            Incl.   50.44164     +0.59584678     +0.75066722

From 129 observations 2003 Oct. 14-Dec. 10.



NAKANO

         **** Don't distribute anyone except personal use only ****

                (C) Copyright 2003 OAA/ComputingSection

write mail from CFAD0::NAKANO on 2003-12-14 18:52:00(JST).

 





    C/2003 T3 (Tabur)                                                     

T 2004 Apr. 28.95682 TT                                 Nakano

q   1.4803825            (2000.0)            P               Q

                   Peri.   43.78598     +0.80224544     -0.57152757

                   Node   347.06961     +0.03370489     +0.33185822

e   1.0            Incl.   50.43659     +0.59604214     +0.75048408

From 93 observations 2003 Oct. 14-Nov. 17.



NAKANO

         **** Don't distribute anyone except personal use only ****

                (C) Copyright 2003 OAA/ComputingSection

write mail from CFAD0::NAKANO on 2003-11-20 02:00:59(JST).

 



◎C/2003 T3の軌道と予報位置です



 土佐の下元繁男氏は,南天から昇ってくるこの彗星の観測に10月30日に

成功しました.8枚のフレ−ムを写し,その移動が確認できているとのこ

とです.氏の核光度は14.2等とのことです.なお,天文ガイド12月号に書

いたとおり,観測条件は次第に良くなります.前回のEMESの軌道からのず

れは,認められません.



    C/2003 T3 (Tabur)                                                     

T 2004 Apr. 28.93929 TT                                 Nakano

q   1.4800845            (2000.0)            P               Q

                   Peri.   43.79192     +0.80216813     -0.57165904

                   Node   347.07484     +0.03384144     +0.33184348

e   1.0            Incl.   50.43351     +0.59613845     +0.75039046

From 50 observations 2003 Oct. 14-30.



Date/        TT  R.A.(2000) Decl.     Delta   r     Daily motion  Mag.  Moon Age

              h    h  m       。  ,                      ,  / PA 。  m1      。

2003 Nov.  1 11  20 11.03  -51 34.5   2.837  2.781    21.3 /  22  11.7   31  .53

           2 11  20 11.86  -51 14.6   2.839  2.772    21.5 /  22  11.7   39  .63

           3 11  20 12.72  -50 54.8   2.841  2.762    21.6 /  23  11.7   49  .73

           4 11  20 13.59  -50 34.8   2.843  2.752    21.7 /  23  11.7   59  .81

           5 11  20 14.49  -50 14.9   2.845  2.742    21.8 /  24  11.7   70  .88

           6 11  20 15.41  -49 54.9   2.847  2.732    22.0 /  25  11.6   81  .94

           7 11  20 16.35  -49 34.9   2.849  2.722    22.1 /  25  11.6   91  .98

           8 11  20 17.31  -49 14.9   2.851  2.712    22.2 /  26  11.6  102 1.00

           9 11  20 18.28  -48 54.8   2.853  2.702    22.4 /  26  11.6  113 1.00

          10 11  20 19.28  -48 34.8   2.855  2.692    22.5 /  27  11.6  123  .98

